| time (UTC) | temp F | wind direction | speed MPH | gust MPH | rain 1hr in | rain 24hr in | rain mn in | humidity % | barometer mb |
| 20260902004610 | 68 | 297 | 8.0 | 25.0 | 0.00 | 0.00 | 0.00 | 56 | 1010.2 |
| 20260902003029 | 67 | 297 | 7.0 | 20.0 | 0.00 | 0.00 | 0.00 | 57 | 1010.3 |
| 20260902001533 | 68 | 308 | 7.0 | 16.0 | 0.00 | 0.00 | 0.00 | 56 | 1010.4 |
| 20260902000032 | 69 | 320 | 7.0 | 16.0 | 0.00 | 0.00 | 0.00 | 55 | 1010.4 |
| 20260901234610 | 69 | 302 | 10.0 | 20.0 | 0.00 | 0.00 | 0.00 | 55 | 1010.2 |
| 20260901233036 | 68 | 308 | 8.0 | 19.0 | 0.00 | 0.00 | 0.00 | 56 | 1010.5 |
| 20260901230032 | 69 | 307 | 7.0 | 16.0 | 0.00 | 0.00 | 0.00 | 53 | 1010.6 |
| 20260901224538 | 71 | 305 | 8.0 | 17.0 | 0.00 | 0.00 | 0.00 | 51 | 1010.5 |
| 20260901223035 | 74 | 303 | 9.0 | 20.0 | 0.00 | 0.00 | 0.00 | 48 | 1010.3 |
| 20260901221535 | 76 | 299 | 8.0 | 18.0 | 0.00 | 0.00 | 0.00 | 47 | 1010.3 |
| 20260901213035 | 76 | 322 | 9.0 | 18.0 | 0.00 | 0.00 | 0.00 | 48 | 1010.4 |
| 20260901211532 | 75 | 322 | 8.0 | 19.0 | 0.00 | 0.00 | 0.00 | 48 | 1010.4 |
| 20260901210035 | 74 | 326 | 7.0 | 18.0 | 0.00 | 0.00 | 0.00 | 50 | 1010.5 |
| 20260901204533 | 74 | 329 | 7.0 | 19.0 | 0.00 | 0.00 | 0.00 | 50 | 1010.6 |
| 20260901203033 | 74 | 326 | 6.0 | 14.0 | 0.00 | 0.00 | 0.00 | 50 | 1010.9 |
| 20260901201530 | 74 | 336 | 5.0 | 13.0 | 0.00 | 0.00 | 0.00 | 51 | 1011.0 |
| 20260901200032 | 73 | 338 | 5.0 | 13.0 | 0.00 | 0.00 | 0.00 | 53 | 1011.2 |
| 20260901193108 | 72 | 345 | 4.0 | 10.0 | 0.00 | 0.00 | 0.00 | 54 | 1011.6 |
| 20260901191537 | 72 | 346 | 3.0 | 10.0 | 0.00 | 0.00 | 0.00 | 56 | 1011.8 |
| 20260901190035 | 71 | 357 | 3.0 | 8.0 | 0.00 | 0.00 | 0.00 | 57 | 1012.0 |
| 20260901184537 | 69 | 348 | 3.0 | 11.0 | 0.00 | 0.00 | 0.00 | 60 | 1012.1 |
| 20260901183107 | 68 | 354 | 4.0 | 11.0 | 0.00 | 0.00 | 0.00 | 61 | 1012.2 |
| 20260901181532 | 67 | 332 | 3.0 | 9.0 | 0.00 | 0.00 | 0.00 | 62 | 1012.3 |
| 20260901180029 | 66 | 294 | 4.0 | 11.0 | 0.00 | 0.00 | 0.00 | 64 | 1012.3 |
| 20260901174536 | 66 | 333 | 4.0 | 9.0 | 0.00 | 0.00 | 0.00 | 65 | 1012.2 |
| 20260901171641 | 63 | 329 | 4.0 | 10.0 | 0.00 | 0.00 | 0.00 | 68 | 1012.2 |
| 20260901170143 | 63 | 329 | 4.0 | 10.0 | 0.00 | 0.00 | 0.00 | 68 | 1012.2 |
| 20260901163036 | 61 | 336 | 3.0 | 7.0 | 0.00 | 0.00 | 0.00 | 71 | 1012.3 |
| 20260901161532 | 58 | 22 | 1.0 | 6.0 | 0.00 | 0.00 | 0.00 | 72 | 1012.3 |
| 20260901160044 | 56 | 120 | 0.0 | 4.0 | 0.00 | 0.00 | 0.00 | 71 | 1012.3 |
| 20260901154530 | 55 | 164 | 0.0 | 2.0 | 0.00 | 0.00 | 0.00 | 71 | 1012.2 |
| 20260901153036 | 53 | 292 | 0.0 | 0.0 | 0.00 | 0.00 | 0.00 | 72 | 1012.1 |
| 20260901144555 | 49 | 292 | 0.0 | 0.0 | 0.00 | 0.00 | 0.00 | 74 | 1011.8 |
| 20260901143032 | 49 | 281 | 0.0 | 2.0 | 0.00 | 0.00 | 0.00 | 74 | 1011.7 |
| 20260901141536 | 48 | 209 | 0.0 | 3.0 | 0.00 | 0.00 | 0.00 | 75 | 1011.7 |
| 20260901140037 | 47 | 208 | 0.0 | 3.0 | 0.00 | 0.00 | 0.00 | 74 | 1011.5 |
| 20260901134532 | 49 | 180 | 0.0 | 1.0 | 0.00 | 0.00 | 0.00 | 70 | 1011.2 |
| 20260901124530 | 50 | 202 | 0.0 | 3.0 | 0.00 | 0.00 | 0.00 | 69 | 1011.0 |
| 20260901123031 | 49 | 202 | 1.0 | 4.0 | 0.00 | 0.00 | 0.00 | 68 | 1010.9 |
| 20260901120034 | 49 | 222 | 0.0 | 3.0 | 0.00 | 0.00 | 0.00 | 67 | 1011.0 |
| 20260901114531 | 49 | 218 | 0.0 | 2.0 | 0.00 | 0.00 | 0.00 | 65 | 1011.1 |
| 20260901113030 | 49 | 238 | 1.0 | 4.0 | 0.00 | 0.00 | 0.00 | 65 | 1011.0 |
| 20260901111531 | 49 | 247 | 1.0 | 2.0 | 0.00 | 0.00 | 0.00 | 65 | 1010.9 |
| 20260901110030 | 49 | 255 | 2.0 | 3.0 | 0.00 | 0.00 | 0.00 | 65 | 1010.9 |
| 20260901104536 | 50 | 172 | 0.0 | 3.0 | 0.00 | 0.00 | 0.00 | 63 | 1011.0 |
| 20260901103037 | 50 | 274 | 0.0 | 3.0 | 0.00 | 0.00 | 0.00 | 61 | 1011.1 |
| 20260901101534 | 52 | 256 | 0.0 | 3.0 | 0.00 | 0.00 | 0.00 | 57 | 1011.0 |
| 20260901094535 | 52 | 203 | 1.0 | 4.0 | 0.00 | 0.00 | 0.00 | 58 | 1011.1 |
| 20260901093034 | 52 | 236 | 1.0 | 4.0 | 0.00 | 0.00 | 0.00 | 59 | 1011.1 |
| 20260901091531 | 51 | 247 | 2.0 | 4.0 | 0.00 | 0.00 | 0.00 | 59 | 1011.1 |
| 20260901090037 | 53 | 247 | 1.0 | 4.0 | 0.00 | 0.00 | 0.00 | 57 | 1011.1 |
| 20260901084643 | 53 | 227 | 1.0 | 4.0 | 0.00 | 0.00 | 0.00 | 55 | 1011.2 |
| 20260901083030 | 53 | 197 | 2.0 | 6.0 | 0.00 | 0.00 | 0.00 | 56 | 1011.4 |
| 20260901081536 | 53 | 219 | 1.0 | 4.0 | 0.00 | 0.00 | 0.00 | 56 | 1011.3 |
| 20260901080029 | 53 | 225 | 1.0 | 3.0 | 0.00 | 0.00 | 0.00 | 55 | 1011.2 |
| 20260901074640 | 54 | 220 | 2.0 | 5.0 | 0.00 | 0.00 | 0.00 | 54 | 1011.4 |
| 20260901073109 | 55 | 242 | 0.0 | 4.0 | 0.00 | 0.00 | 0.00 | 54 | 1011.3 |
| 20260901071529 | 55 | 238 | 1.0 | 3.0 | 0.00 | 0.00 | 0.00 | 54 | 1011.3 |
| 20260901070033 | 55 | 229 | 1.0 | 4.0 | 0.00 | 0.00 | 0.00 | 53 | 1011.3 |
| 20260901064531 | 56 | 219 | 1.0 | 2.0 | 0.00 | 0.00 | 0.00 | 52 | 1011.4 |
| 20260901061536 | 57 | 209 | 1.0 | 4.0 | 0.00 | 0.00 | 0.00 | 51 | 1011.6 |
| 20260901060036 | 56 | 199 | 2.0 | 5.0 | 0.00 | 0.00 | 0.00 | 52 | 1011.6 |
| 20260901054533 | 57 | 236 | 0.0 | 4.0 | 0.00 | 0.00 | 0.00 | 52 | 1011.7 |
| 20260901053107 | 58 | 255 | 0.0 | 2.0 | 0.00 | 0.00 | 0.00 | 49 | 1011.7 |
| 20260901051533 | 59 | 201 | 1.0 | 6.0 | 0.00 | 0.00 | 0.00 | 49 | 1011.8 |
| 20260901050034 | 59 | 193 | 2.0 | 5.0 | 0.00 | 0.00 | 0.00 | 50 | 1011.7 |
| 20260901044642 | 60 | 189 | 2.0 | 4.0 | 0.00 | 0.00 | 0.00 | 51 | 1011.6 |
| 20260901043029 | 60 | 198 | 1.0 | 4.0 | 0.00 | 0.00 | 0.00 | 50 | 1011.6 |
| 20260901041532 | 61 | 228 | 2.0 | 5.0 | 0.00 | 0.00 | 0.00 | 51 | 1011.6 |
| 20260901040146 | 61 | 220 | 0.0 | 3.0 | 0.00 | 0.00 | 0.00 | 51 | 1011.5 |
| 20260901034529 | 60 | 217 | 0.0 | 3.0 | 0.00 | 0.00 | 0.00 | 55 | 1011.4 |
| 20260901031642 | 62 | 292 | 1.0 | 4.0 | 0.00 | 0.00 | 0.00 | 53 | 1011.0 |
| 20260901030033 | 63 | 329 | 0.0 | 4.0 | 0.00 | 0.00 | 0.00 | 53 | 1010.9 |
| 20260901021536 | 69 | 45 | 1.0 | 3.0 | 0.00 | 0.00 | 0.00 | 47 | 1010.5 |
| 20260901014536 | 76 | 36 | 2.0 | 5.0 | 0.00 | 0.00 | 0.00 | 39 | 1010.5 |
| 20260901013032 | 77 | 53 | 1.0 | 5.0 | 0.00 | 0.00 | 0.00 | 35 | 1010.5 |
| 20260901011529 | 78 | 41 | 3.0 | 8.0 | 0.00 | 0.00 | 0.00 | 33 | 1010.5 |
| 20260901010031 | 79 | 28 | 4.0 | 10.0 | 0.00 | 0.00 | 0.00 | 32 | 1010.6 |